Weather in Chutivka

Ukraine / Poltava Region     49°42′00″N   32°40′48″E
temp.,
°C
wind,
m/s
gust,
m/s
humid.,
%
clouds,
%
prec.,
mm/h
press.,
hPa
HPBL,
m
13 april, tue
tue1300:00+10ssw3484100 0.0 102081
03:00+10sse2383100 0.0 102169
06:00+9sse2386100 0.0 102059
09:00+11sse3581100 0.0 1021315
12:00+15sse4564100 0.1 10201286
15:00+14s4563100 0.3 1020976
18:00+13sse3570100 0.1 1019328
21:00+12sse2477100 0.3 101976
14 april, wed
wed1400:00+11s2381100 0.1 101866
03:00+10ssw2383100 0.1 101871
06:00+10sse1184100 0.0 101719
09:00+11s237662 0.1 1017366
12:00+14s565865 0.1 10171281
15:00+16s564965 0.1 10151890
18:00+14s3560100 0.0 1015310
21:00+12se3566100 0.0 1015122
15 april, thu
thu1500:00+10ese3577100 0.1 101483
03:00+8se378094 0.1 1014159
06:00+8ese3878100 0.0 1014243
09:00+10se5777100 0.0 1014461
12:00+13se567098 0.1 10131065
15:00+11s6980100 0.7 1013691
18:00+9se479196 3.0 1013516
21:00+7se349241 3.0 101372
16 april, fri
fri1600:00+8se369068 0.1 1012198
03:00+6ssw369195 0.2 1013157
06:00+6s3685100 0.0 1013352
09:00+8sse357085 0.0 1014502
12:00+12sse564987 0.1 10141923
15:00+12se5647100 0.1 10151761
18:00+12se445031 0.0 10151546
21:00+8ese22636 0.0 101611
17 april, sat
sat1700:00+7ene22686 0.0 101611
03:00+6e117089 0.0 101710
06:00+6wsw117099 0.0 101710
09:00+10w115919 0.0 1018372
12:00+14s114936 0.0 10191577
15:00+14sse334397 0.1 10191975
18:00+14sse344531 0.0 1020483
21:00+10s115796 0.0 102215